2021-123A

Last updated on Sun Apr 24 2022 00:02:39 GMT+0000 (Coordinated Universal Time)

1 50001U 21123A 22112.01367404 -.00000252 00000+0 00000+0 0 9996 2 50001 0.0282 302.7669 0000340 321.1207 96.1079 1.00268887 19
UTC large
Height (km)
Speed (km/s)
/
Latitude / Longitude
Inclination (degrees)
Orbital Period (minutes)
Azimuth
Elevation
Range (km)
Doppler Factor

Next 0 passes for location: London (51.5072 / 0.1276)

Sorry there are no passes over London.